カタログに戻る

CZ-6A DEB

運用中SSO
NORAD 54431·DEBRIS·🇨🇳 China

打ち上げ Nov 11, 2022 から Taiyuan Satellite Launch Center

Loading…

次のパス (今後24時間)

TLE

最新Source: Space-Track

元期: Sep 14, 2026, 23:00 UTC

1 54431U 22151FF  26257.95896797  .00000703  00000-0  44716-3 0  9995
2 54431  98.9807 261.2503 0118775 103.7625 257.6794 14.03480644196226

AllMySatでCZ-6A DEBをリアルタイム追跡

Download on the App Store